GFSSW_250_rhum_276.txt.gz
RH
6 6 5 5 5 5 6 6 6 6 7 7 7 7 8 7 8 8 8 8 7 5 6 6 6 7 7 6 6 6 49 94 81 96 65 15 16 9 48 100 100 90 24 12 8
5 5 5 5 5 6 7 7 7 7 8 7 7 6 6 7 7 6 7 7 6 6 6 5 5 7 7 6 6 5 94 99 99 43 7 14 8 23 27 77 100 92 13 10 9
6 6 6 6 6 6 6 6 7 8 8 8 7 8 8 7 7 7 7 7 6 6 7 7 7 7 7 6 7 6 12 11 28 8 7 6 68 86 64 64 98 17 10 10 9
8 6 6 6 6 6 7 8 8 8 10 10 9 8 8 9 8 7 8 7 7 8 8 7 7 6 6 7 9 10 7 8 7 6 6 5 94 94 61 17 20 10 10 10 10
12 10 9 9 9 7 7 8 8 9 10 10 9 10 10 10 9 8 8 8 7 7 7 7 7 7 7 7 7 8 8 7 8 6 5 5 4 4 59 100 97 18 8 10 10
15 12 10 9 9 9 9 10 10 10 9 9 9 8 9 8 8 8 8 8 8 7 7 8 9 8 8 8 8 7 7 7 6 6 5 5 5 6 82 100 60 30 9 8 8
13 12 10 10 10 9 8 8 9 9 9 9 8 8 9 8 7 8 8 8 10 10 12 10 10 10 9 9 8 8 8 6 7 6 6 7 6 41 100 100 85 76 10 8 7
12 10 10 9 9 10 10 9 9 8 9 8 8 8 8 9 8 9 10 12 13 13 13 12 12 11 11 10 9 10 9 8 8 7 6 7 7 8 100 100 93 32 9 7 6
12 11 11 10 10 10 11 12 12 12 12 12 13 15 15 14 13 15 14 17 18 17 15 15 15 14 13 12 11 10 11 10 9 9 9 8 8 8 51 25 52 13 7 7 8
12 12 11 10 11 11 12 13 14 15 16 16 17 17 23 22 21 21 21 21 21 20 18 16 16 16 14 14 13 12 12 10 10 11 10 10 9 8 7 8 38 8 7 9 8
11 11 11 10 11 11 11 11 12 14 14 15 16 19 20 21 22 23 23 23 22 21 20 18 18 16 14 13 11 10 10 9 9 11 11 11 11 10 8 7 7 8 10 10 9
11 11 12 11 11 11 11 12 12 12 13 13 13 14 14 16 18 20 19 19 19 18 16 15 13 12 10 10 9 9 8 8 8 8 9 10 10 10 10 8 9 9 10 10 9
12 12 12 12 12 13 12 12 13 12 12 12 12 12 13 13 12 12 12 12 13 12 12 11 10 10 10 10 9 9 8 8 7 7 7 8 8 9 10 9 9 10 7 8 8
13 13 12 13 13 14 13 13 13 12 11 12 13 14 12 13 13 13 11 12 12 11 10 11 10 10 11 11 11 11 10 10 9 8 8 7 7 10 10 12 13 8 8 7 7
14 13 14 13 13 14 13 14 14 14 13 14 15 14 13 13 14 12 13 12 11 12 11 12 11 12 12 13 12 12 10 9 9 9 7 8 8 8 13 24 12 8 7 7 6
14 13 13 13 14 15 15 16 16 14 13 13 17 14 13 12 13 13 13 12 12 12 11 12 11 12 13 12 12 10 10 10 10 9 10 9 8 8 100 96 54 8 7 7 6
14 14 15 16 17 18 19 18 14 15 13 12 13 13 12 13 12 12 11 12 12 12 12 11 11 11 12 13 12 10 9 8 9 9 12 11 9 9 13 32 11 8 7 7 6
16 18 17 18 18 18 16 15 17 14 12 11 16 13 12 12 13 13 12 12 12 11 10 11 11 10 10 12 11 11 11 11 10 11 13 13 12 8 12 12 10 7 7 7 6
15 16 14 16 16 15 15 16 16 12 12 13 13 11 10 10 10 12 14 14 12 12 11 10 11 10 12 12 11 13 11 11 9 10 12 13 14 31 30 38 19 7 7 7 7
11 11 12 12 11 11 12 13 13 13 13 11 11 11 12 10 10 10 13 14 14 12 12 12 11 11 11 13 13 12 12 9 10 11 12 12 16 100 100 74 23 8 8 8 7
10 10 10 10 10 10 10 10 11 12 12 12 13 12 14 12 13 16 16 15 15 14 14 14 14 15 13 12 14 11 11 11 11 11 12 13 16 41 76 64 15 8 7 7 7
10 9 9 9 10 11 12 12 14 12 14 14 15 15 16 16 14 16 18 14 13 16 16 16 14 13 12 12 10 11 12 13 11 12 12 13 22 100 38 20 17 11 9 8 7
15 12 9 9 10 11 12 13 14 15 16 17 17 17 18 17 15 14 16 15 15 16 18 14 13 14 13 12 13 15 13 13 13 13 10 12 16 21 18 93 99 18 10 8 7
36 33 22 17 17 14 14 15 15 15 15 15 15 16 15 15 14 15 16 15 16 15 14 14 13 13 13 13 12 12 11 11 12 11 11 14 23 100 87 41 42 20 10 8 8
40 42 50 46 32 30 28 26 24 22 20 19 17 16 15 14 15 15 15 14 12 13 14 15 17 22 15 14 13 12 10 12 11 11 11 14 26 100 94 29 42 14 12 9 10
32 34 38 44 50 52 43 34 32 31 29 24 23 22 22 21 21 16 15 19 19 16 23 71 94 85 30 21 19 17 16 14 13 14 11 17 21 41 22 25 62 17 11 11 10
29 30 31 32 33 35 37 37 34 34 34 31 29 28 28 25 24 26 22 19 19 24 100 99 100 87 79 94 41 14 19 19 18 18 18 16 21 52 35 22 40 15 17 12 12

GFSSW_250_rhum_279.txt.gz
RH
9 8 8 7 6 6 6 6 6 6 7 6 6 6 8 9 7 9 9 8 8 8 7 7 7 6 6 5 4 6 7 11 14 50 47 41 44 23 100 82 88 100 100 79 20
7 7 7 6 6 6 6 6 6 6 6 6 6 6 6 7 6 5 6 7 7 6 6 6 6 5 6 7 5 5 8 14 15 11 31 8 37 50 100 100 100 100 98 53 12
7 7 7 6 6 6 5 5 5 6 5 6 6 6 6 6 6 6 6 6 6 6 6 6 5 4 5 6 7 6 16 40 25 8 8 8 7 5 32 98 100 93 94 54 8
6 6 6 6 6 5 5 6 6 6 6 6 7 8 8 7 7 7 7 7 7 6 6 6 5 5 6 5 6 8 10 10 9 9 8 5 5 4 17 100 100 100 100 54 8
6 6 6 6 6 6 6 5 6 7 7 8 8 8 9 8 7 8 8 9 7 6 6 6 6 6 6 6 6 7 7 7 6 6 6 5 5 4 41 99 100 100 94 60 12
8 7 7 7 6 6 6 6 6 7 7 8 8 8 9 9 10 10 8 8 7 8 7 7 6 6 6 7 8 7 8 8 7 6 6 5 6 4 99 98 84 98 100 66 14
9 9 8 7 7 7 6 6 7 7 7 8 9 10 10 12 10 9 8 8 8 7 7 7 7 7 8 8 8 8 8 8 8 6 5 5 7 4 87 100 96 100 100 88 24
12 11 11 11 9 9 8 7 7 8 8 8 9 10 10 10 9 9 8 8 7 7 7 7 9 10 12 11 11 10 9 9 10 8 7 6 8 6 9 40 67 100 100 98 53
14 14 12 11 11 10 8 8 8 8 8 8 8 8 8 8 8 8 8 8 8 8 8 10 12 14 14 15 14 12 11 10 10 9 8 9 9 8 6 28 65 99 98 100 19
16 16 15 14 12 10 8 8 7 8 8 8 10 9 12 10 10 10 10 11 12 13 13 14 16 16 16 15 15 13 12 12 10 8 8 10 10 10 10 8 9 44 81 95 6
16 15 14 12 11 10 9 8 7 7 7 8 9 11 14 14 15 15 16 18 19 20 20 20 21 19 19 17 16 14 13 11 10 9 8 8 8 11 10 8 10 16 100 100 8
17 15 13 11 10 9 9 9 8 9 9 8 8 10 12 13 14 16 17 16 17 19 21 21 21 19 18 16 14 12 10 9 8 7 7 6 7 7 8 8 8 35 99 69 15
16 14 12 11 10 9 8 8 9 11 10 11 11 11 12 12 11 11 12 12 13 14 15 15 14 13 13 11 10 9 8 7 6 7 8 7 7 6 6 6 6 8 12 7 8
13 12 12 11 10 10 10 9 10 10 11 11 12 12 12 11 11 11 11 11 11 10 10 12 10 11 10 10 10 9 8 8 8 7 9 8 8 6 7 6 6 7 11 8 6
12 11 11 11 10 11 11 10 10 11 10 11 14 12 12 12 13 12 12 12 11 10 10 10 10 10 10 11 10 12 10 10 9 9 10 8 8 10 9 6 17 13 21 8 7
13 13 13 13 12 11 11 11 11 11 11 11 14 12 14 12 14 13 12 12 11 12 12 11 10 10 10 11 12 12 13 12 11 10 10 8 8 9 10 24 47 30 25 26 7
14 14 13 12 12 12 12 12 14 13 11 10 13 15 14 13 14 13 12 12 12 12 11 11 11 11 12 12 12 12 13 13 11 11 11 8 8 6 11 90 64 54 27 22 8
11 12 12 13 12 11 11 11 13 11 8 8 12 19 17 15 14 12 12 11 12 12 11 10 10 11 11 11 11 11 11 10 11 11 11 9 7 10 10 11 39 100 43 7 8
14 13 13 13 13 13 12 13 13 9 10 12 17 18 22 13 12 12 12 12 11 11 11 10 12 11 11 10 11 10 11 10 10 10 11 9 8 10 11 16 14 16 19 13 8
21 19 16 14 14 14 15 14 13 13 12 12 14 13 11 13 11 12 11 10 10 10 10 9 11 11 11 11 12 12 10 10 10 10 12 10 10 11 12 90 49 62 35 26 9
14 13 12 12 11 11 12 12 12 12 14 14 12 12 15 13 12 11 11 12 11 11 10 10 9 11 10 12 13 15 12 11 9 10 11 10 10 12 13 18 37 53 27 47 16
14 11 9 8 8 8 9 9 10 10 10 10 10 10 10 11 11 11 11 12 12 11 10 10 11 14 11 10 12 15 18 13 10 11 9 8 9 13 14 40 77 54 26 46 14
13 12 11 10 8 7 8 8 9 10 10 10 10 10 10 11 11 12 13 16 14 10 11 12 12 13 12 15 14 12 12 12 10 9 8 9 12 10 14 16 50 96 100 90 22
16 16 15 13 12 10 9 9 9 10 11 12 12 13 13 14 14 15 16 17 14 14 15 14 14 11 12 14 14 12 12 12 10 10 12 11 15 11 18 29 22 87 82 64 34
22 22 23 25 24 21 15 14 13 11 12 13 14 14 14 15 15 16 16 15 12 13 13 13 13 12 12 13 13 11 11 11 10 10 9 14 18 12 14 14 22 44 45 36 28
21 21 22 24 26 31 33 30 26 29 28 23 20 18 17 16 14 13 11 11 12 15 15 13 12 11 10 10 10 11 10 10 8 9 10 15 22 13 14 19 100 51 38 48 40
25 23 23 23 25 26 29 33 37 40 41 38 33 31 29 24 19 19 17 15 14 15 15 15 14 14 17 26 46 19 38 18 14 12 14 16 25 19 18 100 100 100 64 49 32

GFSSW_250_rhum_285.txt.gz
RH
10 9 8 8 8 7 7 8 8 7 8 8 9 9 8 8 8 8 7 8 8 9 9 8 8 8 7 6 6 6 5 5 6 5 31 18 23 26 20 7 20 100 74 100 90
11 9 9 8 8 7 7 6 7 7 7 7 7 8 9 7 7 8 8 6 6 5 5 7 7 6 6 6 6 5 6 5 5 8 72 18 8 18 8 16 93 100 75 97 67
12 10 8 8 8 8 7 7 7 7 7 7 7 7 7 8 7 7 7 7 7 7 5 5 6 6 7 7 6 6 5 5 6 7 19 9 8 8 8 27 70 73 47 57 58
11 11 10 9 9 8 8 8 7 7 7 7 6 6 6 6 7 6 6 6 6 6 5 6 5 6 7 7 7 6 6 6 6 6 8 9 9 8 8 12 54 73 100 96 72
13 11 11 11 10 9 8 8 8 8 7 7 6 6 6 6 5 6 6 5 5 5 6 5 6 6 6 6 7 6 6 6 7 8 8 16 9 8 9 9 58 100 100 100 81
13 12 11 10 10 10 10 9 8 8 7 7 6 6 5 6 6 5 5 5 5 5 5 5 7 7 7 7 8 7 7 6 6 9 9 12 10 8 9 8 11 18 88 100 100
12 12 11 11 10 9 8 9 8 8 7 7 6 6 5 6 5 5 6 5 5 5 5 6 7 8 8 8 7 7 8 8 8 9 11 11 10 8 7 7 14 12 24 88 100
13 10 11 11 10 9 8 7 7 7 7 6 6 6 6 5 5 6 6 6 6 6 7 9 9 8 8 8 8 7 8 8 9 12 11 12 12 13 11 9 8 10 11 10 11
13 11 8 9 11 10 8 8 7 6 6 6 6 6 6 5 5 7 6 6 8 9 8 9 9 9 8 7 8 9 8 9 10 11 10 10 11 11 9 8 9 10 11 11 10
11 10 9 7 7 8 9 8 7 7 6 7 6 6 6 6 5 6 6 8 8 8 7 8 8 8 7 8 10 12 12 11 10 11 11 10 12 11 9 8 7 8 9 10 10
10 8 8 7 7 7 7 7 7 7 6 7 7 7 7 8 7 7 7 6 6 7 7 11 11 6 13 15 17 16 17 14 14 14 15 12 11 9 8 8 6 6 7 7 8
7 7 6 6 7 7 7 6 7 8 9 10 10 10 9 8 7 7 7 7 8 8 10 12 10 11 15 15 18 18 19 17 16 15 13 10 8 8 8 8 6 7 6 6 6
8 8 8 8 7 8 8 10 12 10 10 11 9 11 10 8 7 8 7 7 9 9 10 12 10 13 14 14 17 17 15 14 13 12 10 9 7 8 10 9 8 9 7 6 6
11 11 11 10 10 11 12 12 11 11 10 11 10 10 9 8 8 8 8 8 9 8 10 11 9 10 11 11 11 11 10 10 10 10 10 10 8 9 10 10 10 9 8 7 6
14 12 13 13 13 13 15 15 14 15 12 12 12 11 10 9 8 8 9 8 8 9 12 10 8 9 11 10 11 10 9 9 10 11 10 7 9 9 11 11 12 9 8 9 7
14 14 14 15 14 16 17 16 17 15 14 12 11 11 10 9 9 8 8 8 9 9 11 9 9 11 12 10 12 10 9 9 10 11 9 7 9 8 12 13 14 10 10 10 10
17 19 18 17 18 17 17 18 16 14 13 13 12 12 10 10 10 8 8 10 10 10 11 10 11 11 11 10 9 10 10 10 12 11 8 8 8 9 10 12 12 11 9 14 14
21 20 19 18 17 16 16 15 13 13 14 11 11 11 9 8 9 9 11 11 11 12 11 12 12 12 12 14 11 12 11 11 10 10 9 9 10 10 9 12 11 11 10 10 12
20 19 17 16 17 15 13 12 11 12 12 11 11 11 10 10 11 13 13 11 9 10 10 12 12 11 13 13 13 11 12 12 11 10 9 8 10 10 9 11 11 10 9 10 17
18 18 16 16 14 14 13 11 10 10 11 10 10 10 10 10 10 10 10 9 8 9 9 10 13 14 13 13 13 12 11 10 10 9 10 10 9 11 10 11 11 11 11 10 9
18 17 16 15 15 14 11 10 10 10 9 8 7 7 9 10 9 9 9 8 7 8 10 13 18 16 14 16 13 11 11 10 8 8 9 11 10 9 9 10 10 13 11 11 10
18 16 13 13 12 11 11 11 10 11 11 8 6 6 7 8 8 8 6 8 8 10 10 12 15 16 17 15 12 11 11 9 9 9 9 10 14 9 10 10 12 13 12 11 10
16 15 14 14 13 12 12 12 10 9 9 8 7 7 7 7 9 9 10 9 9 9 11 12 14 17 16 16 13 12 12 11 11 10 9 8 15 12 10 10 12 13 12 12 12
23 21 19 15 14 14 11 9 9 8 8 7 6 6 6 7 7 8 8 9 9 10 11 11 13 15 16 15 14 13 12 11 10 10 9 7 10 11 7 7 9 11 14 12 14
18 16 15 14 13 12 11 10 10 9 8 8 7 6 6 6 6 7 8 8 9 10 11 11 13 14 15 17 14 12 12 11 10 8 8 8 7 10 9 7 8 11 11 12 17
16 15 16 16 14 13 12 11 11 10 10 11 12 10 9 7 7 8 8 8 9 10 10 12 13 14 14 16 17 17 9 7 7 6 6 8 10 12 10 8 8 10 10 14 13
19 19 19 18 18 16 17 16 16 16 17 15 16 16 14 14 12 10 10 11 12 12 12 13 12 12 12 12 12 12 14 13 8 7 8 9 9 11 11 8 9 10 12 13 14

GFSSW_250_rhum_291.txt.gz
RH
11 10 10 10 9 9 9 10 10 10 10 9 9 9 10 11 9 8 8 8 8 8 8 8 8 7 7 8 8 7 6 6 7 7 8 7 7 10 8 10 10 18 80 78 78
10 11 11 10 9 9 8 8 9 9 9 9 9 8 8 8 8 7 7 7 7 7 6 7 6 6 5 5 6 6 6 6 7 8 14 8 8 11 9 9 8 15 84 85 92
10 10 10 10 9 9 8 8 8 8 8 8 8 8 7 7 6 6 6 7 6 6 6 5 5 4 4 4 6 6 6 6 8 8 8 8 10 12 10 9 11 11 18 58 92
10 10 10 10 10 9 9 8 8 8 8 7 7 7 6 6 7 6 6 6 6 5 5 5 4 4 4 4 5 6 6 6 8 8 8 8 11 12 12 11 12 11 14 11 37
10 10 10 10 10 10 9 9 8 8 7 7 7 7 6 6 6 5 6 6 6 5 5 5 5 4 4 4 4 6 6 7 9 9 8 10 12 13 13 13 12 15 11 13 11
10 9 10 10 10 9 9 9 9 8 7 7 7 6 7 6 6 6 6 6 6 6 5 5 5 4 5 4 5 6 7 8 7 8 9 12 13 16 16 15 13 14 12 11 12
12 10 10 10 10 9 9 8 8 7 7 7 7 7 6 6 6 6 6 6 6 6 6 5 5 5 4 4 5 6 6 6 7 8 11 11 15 16 14 14 14 12 10 9 11
14 13 12 11 11 10 10 9 9 8 7 7 7 7 7 6 6 6 6 7 7 6 6 6 5 5 5 5 6 6 5 7 8 10 13 15 15 16 16 15 13 11 9 8 8
18 17 16 13 12 12 10 9 8 8 7 7 7 8 8 6 7 7 7 6 6 6 6 6 5 5 6 6 6 5 6 8 14 14 19 18 16 16 17 14 11 10 9 8 6
20 18 17 16 16 14 11 11 10 9 9 9 9 10 9 8 8 8 7 7 6 6 6 6 5 5 6 6 6 6 7 8 16 21 22 19 18 19 16 13 11 9 9 10 8
18 17 17 15 16 15 14 13 10 10 11 11 10 10 10 9 8 8 8 8 7 6 6 6 5 6 7 6 6 7 7 10 17 15 17 17 18 16 14 12 10 9 9 9 9
17 16 16 18 16 15 14 13 13 13 12 11 12 12 10 10 10 9 9 8 7 6 7 7 7 6 7 6 7 7 7 9 10 14 14 12 13 13 12 11 10 10 9 9 9
14 15 17 17 16 14 14 13 13 14 14 12 11 9 8 7 7 7 7 7 7 7 8 9 8 7 7 7 7 7 7 9 8 10 12 9 9 11 11 12 10 10 9 9 9
12 13 13 15 14 13 13 13 13 13 13 13 12 10 9 7 8 7 6 7 8 8 9 10 8 8 8 7 8 8 9 8 9 10 10 9 8 10 11 10 9 9 10 10 9
11 11 12 12 12 11 11 11 11 11 11 11 10 9 8 7 8 8 8 8 9 11 12 10 8 9 8 6 8 7 9 9 10 11 9 9 12 8 12 10 8 8 11 10 10
11 10 10 10 10 10 10 10 10 10 9 8 8 8 7 8 9 9 9 9 10 11 12 10 10 9 7 7 7 6 8 10 10 10 10 8 10 8 10 12 9 8 8 10 9
11 11 10 10 10 10 10 9 9 9 9 8 8 9 10 10 11 11 11 12 12 13 12 11 10 8 8 7 7 6 8 11 10 10 12 9 10 8 10 10 11 9 8 8 8
10 10 10 10 10 9 9 8 8 8 8 9 9 10 10 12 12 11 12 12 13 13 12 12 10 8 8 8 8 8 9 11 12 11 11 11 11 10 10 10 10 9 9 9 9
13 13 13 12 11 10 8 8 8 8 10 11 9 9 10 12 12 12 12 12 12 12 13 13 10 8 8 8 8 9 10 10 11 11 12 12 13 11 10 10 10 10 10 9 9
16 16 15 13 12 11 11 11 12 13 13 13 11 12 12 13 14 12 11 11 10 11 11 10 10 9 9 8 8 9 10 10 10 11 12 12 11 12 10 10 10 11 10 9 9
19 20 17 14 14 14 12 13 15 15 14 14 15 15 14 14 14 13 11 10 10 10 10 10 9 8 8 9 8 8 9 8 9 9 10 12 10 12 10 10 10 10 9 10 9
19 18 18 17 17 16 14 13 16 16 16 15 16 15 13 12 12 11 12 11 10 9 8 9 10 9 8 8 7 7 8 8 8 8 9 10 13 12 10 10 11 11 10 8 8
28 23 18 17 16 16 16 13 13 15 16 15 14 13 14 13 13 12 11 10 9 9 8 8 9 10 8 7 7 7 7 7 6 7 8 8 14 15 12 9 11 11 12 10 8
26 25 23 21 17 16 16 14 13 13 14 14 14 12 11 10 11 11 11 10 9 9 8 7 6 8 9 6 6 7 6 6 6 6 7 8 11 17 12 9 9 10 11 12 9
30 27 25 23 23 22 20 18 16 14 14 14 16 15 12 10 10 10 12 11 10 10 7 7 7 6 8 8 6 6 7 7 7 7 8 9 10 11 11 11 9 9 10 12 13
33 32 32 28 24 21 19 18 17 16 16 15 14 13 12 11 10 9 9 9 8 8 7 7 6 6 6 7 7 6 6 7 8 8 8 9 10 11 12 11 11 10 12 12 12
28 30 29 27 25 22 20 19 17 15 14 13 12 12 11 10 10 10 10 10 10 9 9 9 8 6 7 6 6 7 7 7 8 9 9 10 11 12 12 15 14 11 9 10 10